Tracking 30072 objects as of 14-Jan-2025
HD Live streaming from Space Station
objects crossing your sky now

ONEWEB-0223

Track ONEWEB-0223 now!
10-day predictions
ONEWEB-0223 is classified as:


NORAD ID: 48768
Int'l Code: 2021-045B
Perigee: 1,207.8 km
Apogee: 1,210.0 km
Inclination: 87.9 °
Period: 109.5 minutes
Semi major axis: 7579 km
RCS: Unknown
Launch date: May 28, 2021
Source: United Kingdom (UK)
Launch site: VOSTOCHNY COSMODROME (VOSTO)
Your satellite tracking list
Your tracking list is empty




NASA's NSSDC Master Catalog

Two Line Element Set (TLE):
1 48768U 21045B   25013.94988952  .00000171  00000-0  41992-3 0  9997
2 48768  87.9077   2.5689 0001448 102.8258 257.3034 13.15548772176131
Source of the keplerian elements: AFSPC